Regional Weather Roundup
Issued by NWS Green Bay, WI

Home | Current Version | Previous Version | Graphics & Text | Print | Product List | Glossary Off
Versions: 1 2 3 4 5 6 7 8 9 10 11 12 13 14 15 16 17 18 19 20 21 22 23 24 25 26 27 28 29 30 31 32 33 34 35 36 37 38 39 40 41 42 43 44 45 46 47 48 49 50

000
ASUS43 KGRB 292311
RWRGRB

NORTH-CENTRAL AND NORTHEAST WISCONSIN REGIONAL WEATHER ROUNDUP
NATIONAL WEATHER SERVICE GREEN BAY WI
600 PM CDT MON JUN 29 2015

WIZ005-009-010>012-018-019-300000-
NORTH CENTRAL WISCONSIN

CITY           SKY/WX    TMP DP  RH WIND       PRES   REMARKS
IRONWOOD       NOT AVBL
MANITOWISH WTR CLOUDY    64  62  93 W7        29.77S
ARBOR VITAE    CLOUDY    64  61  90 NW5       29.77R
EAGLE RIVER    CLOUDY    64  56  75 N5        29.78R
LAND O LAKES   CLOUDY    64  61  91 CALM      29.79R
RHINELANDER    CLOUDY    64  59  83 NW6       29.78R
PHILLIPS       CLOUDY    62  60  93 W3        29.79R
ANTIGO         CLOUDY    63  59  86 E8        29.78S
TOMAHAWK       CLOUDY    61  59  92 W5        29.79S
MERRILL        CLOUDY    63  61  96 W7        29.78F
$$

WIZ013-073-300000-
NORTHEAST WISCONSIN

CITY           SKY/WX    TMP DP  RH WIND       PRES   REMARKS
IRON MOUNTAIN  LGT RAIN  61  59  93 NW7       29.74R FOG
MARINETTE      CLOUDY    68  59  73 SW8       29.75S
OCONTO         CLOUDY    70  68  94 SW3       29.75F
$$

WIZ017-030-035>037-045-300000-
CENTRAL WISCONSIN

CITY           SKY/WX    TMP DP  RH WIND       PRES   REMARKS
MEDFORD        CLOUDY    60  58  96 W7        29.81R
WAUSAU         CLOUDY    62  58  86 W8        29.76F
MOSINEE        DRIZZLE   61  61 100 W9        29.79F
MARSHFIELD     LGT RAIN  61  57  87 SW10      29.79F FOG
WISC RAPIDS    CLOUDY    62  57  83 W8        29.82F
STEVENS POINT  LGT RAIN  60  57  90 W5        29.79F
WAUPACA        PTSUNNY   71  64  79 S5        29.77S
SHAWANO        PTSUNNY   70  64  83 S3        29.77R
CLINTONVILLE   PTSUNNY  N/A N/A N/A S8        29.76R
$$

WIZ038-039-048-051-300000-
FOX VALLEY

CITY           SKY/WX    TMP DP  RH WIND       PRES   REMARKS
NWS GREEN BAY  LGT RAIN  69  62  78 SW3       29.76F
APPLETON       PTSUNNY   72  61  68 SW7       29.77F
OSHKOSH        CLOUDY    75  64  68 SW8       29.76F
FOND DU LAC    LGT RAIN  73  63  70 S6        29.78S
$$

WIZ022-050-052-300000-
EAST CENTRAL WISCONSIN

CITY           SKY/WX    TMP DP  RH WIND       PRES   REMARKS
STURGEON BAY   MOSUNNY   70  54  56 S10       29.78F
MANITOWOC      MOSUNNY   70  60  70 MISG      29.78F
SHEBOYGAN      MOSUNNY   73  59  61 S12       29.78F
$$

LMZ563-521-522-541>543-300000-
LAKESHORE

STATION/POSITION TIME  TEMP    WIND        PRES    VSBY  WAVE
                       AIR SEA DIR/SP/G                  HT/PER
                 (UTC) (F)     (DEG/KT/KT) (MB)    (MI)  (FT/S)
SHEBOYGAN LKSHOR 2300   61     170/ 14/ 15 1008.8F
KEWAUNEE LKSHORE 2200   63     180/ 12/ 13 1008.1R
ALGOMA MARINA    2210          210/ 11/ 13   N/A
NORTHPORT PIER   2200   73     140/  8/ 10 1007.5F
N MID LAKE BUOY  2250   59 52  200/  6/  8 1007.9F         1
S GREEN BAY BUOY 2200   75 72  180/ 12/ 16 1008.9F
CHAMBERS ISLAND  2200   76     150/  7/ 12 1007.5F
MENOMINEE LKSHOR 2200   73     160/  7/ 10 1008.1F
$$


USA.gov is the U.S. government's official web portal to all federal, state and local government web resources and services.